カタログに戻る

STARLINK-32227

運用中通信VLEO
NORAD 60361·PAYLOAD·🇺🇸 United States

打ち上げ Aug 4, 2024 から Vandenberg Space Force Base

Loading…

次のパス (今後24時間)

TLE

最新Source: CelesTrak SupGP

元期: Sep 15, 2026, 03:31 UTC

1 60361C 24138G   26258.14701389  .00053444  00000+0  15788-2 0  2588
2 60361  53.1587 148.9450 0001344  77.9752 276.2890 15.34367529    17

AllMySatでSTARLINK-32227をリアルタイム追跡

Download on the App Store